Location: Brno
(49.2000°N, 16.6330°E)
Time: 17:22:17
(UTC+02:00)

Cosmos 1603 - Visible Passes

Search period start: 25 July 2014 00:00
Search period end: 04 August 2014 00:00
Orbit: 832 x 860 km, 71.0° (Epoch: 25 July)

Date Brightness Start Highest point End Pass type
(mag) Time Alt. Az. Time Alt. Az. Time Alt. Az.
25 Jul 4.3 00:20:59 10° NNW 00:26:34 53° NE 00:29:41 26° ESE visible
25 Jul 4.7 02:05:34 10° NW 02:10:26 30° WSW 02:11:33 28° SW visible
25 Jul 6.0 22:24:03 10° N 22:27:13 15° NNE 22:30:23 10° ENE visible
26 Jul 4.3 00:07:11 10° NNW 00:12:45 52° NE 00:15:47 26° ESE visible
26 Jul 4.6 01:51:44 10° NW 01:56:38 31° WSW 01:57:39 29° SW visible
26 Jul 6.0 22:10:16 10° N 22:13:23 15° NNE 22:16:29 10° ENE visible
26 Jul 4.3 23:53:23 10° NNW 23:58:56 51° NE 00:01:56 26° ESE visible
27 Jul 4.6 01:37:54 10° NW 01:42:51 31° WSW 01:43:48 30° WSW visible
27 Jul 6.0 21:56:30 10° N 21:59:32 14° NNE 22:02:35 10° ENE visible
27 Jul 4.3 23:39:35 10° NNW 23:45:07 50° NE 23:48:07 26° ESE visible
28 Jul 4.6 01:24:05 10° NW 01:29:04 32° WSW 01:29:59 30° SW visible
28 Jul 6.0 21:42:43 10° N 21:45:42 14° NNE 21:48:41 10° ENE visible
28 Jul 4.3 23:25:47 10° NNW 23:31:19 49° NE 23:34:21 25° ESE visible
29 Jul 4.6 01:10:15 10° NW 01:15:16 33° WSW 01:16:13 31° SW visible
29 Jul 6.0 21:28:57 10° N 21:31:52 14° NNE 21:34:47 10° ENE visible
29 Jul 4.4 23:11:59 10° NNW 23:17:30 48° NE 23:20:37 24° ESE visible
30 Jul 4.6 00:56:25 10° NW 01:01:29 34° WSW 01:02:30 32° SW visible
30 Jul 5.9 21:15:10 10° N 21:18:01 14° NNE 21:20:52 10° ENE visible
30 Jul 4.4 22:58:11 10° NNW 23:03:41 46° NE 23:06:55 23° ESE visible
31 Jul 4.6 00:42:35 10° NW 00:47:42 35° WSW 00:48:48 32° SW visible
31 Jul 4.4 22:44:24 10° NNW 22:49:52 45° NE 22:53:15 22° ESE visible
01 Aug 4.6 00:28:46 10° NW 00:33:55 36° WSW 00:35:08 32° SW visible
01 Aug 4.4 22:30:36 10° NNW 22:36:03 44° NE 22:39:37 21° ESE visible
02 Aug 4.6 00:14:57 10° NW 00:20:07 37° WSW 00:21:30 32° SW visible
02 Aug 4.4 22:16:48 10° NNW 22:22:15 43° NE 22:26:01 19° ESE visible
03 Aug 4.6 00:01:07 10° NW 00:06:20 38° WSW 00:07:54 32° SW visible
03 Aug 4.5 22:03:00 10° NNW 22:08:26 43° NE 22:12:27 17° ESE visible
03 Aug 4.6 23:47:18 10° NW 23:52:33 39° WSW 23:54:21 31° SW visible
